Weather History for Montrose, CO

Change the Weather History Date:

Sunday, May 19, 2013

  Actual Average Record
Temperature  
Mean Temperature 53 °F 59 °F  
Max Temperature 64 °F 75 °F 87 °F (2005)
Min Temperature 42 °F 44 °F 35 °F (2011)
Degree Days  
Heating Degree Days 12 6  
Month to date heating degree days 171 170  
Since 1 July heating degree days 6074 6108  
Cooling Degree Days 0 1  
Month to date cooling degree days 9 1  
Year to date cooling degree days 9 1  
Growing Degree Days 4 (Base 50)    
Moisture  
Dew Point 34 °F    
Average Humidity 47    
Maximum Humidity 65    
Minimum Humidity 29    
Precipitation  
Precipitation 0.02 in 0.03 in 0.16 in (2001)
Month to date precipitation 0.57 0.82  
Year to date precipitation 2.64 4.04  
Sea Level Pressure  
Sea Level Pressure 29.86 in    
Wind  
Wind Speed 8 mph (SE)    
Max Wind Speed 23 mph    
Max Gust Speed 31 mph    
Visibility 10 miles    
Events Rain    
T = Trace of Precipitation, MM = Missing Value Source: NWS Daily Summary

Daily Weather History Graph

Daily Weather History Graph

Search for Another Location

Airport:

Trip Planner

Search our weather history database for the weather conditions in past years. The results will help you decide how hot, cold, wet, or windy it might be!

Date:

Astronomy

May. 19, 2013 Rise Set
Actual Time 5:56 AM MDT 8:20 PM MDT
Civil Twilight 5:26 AM MDT 8:50 PM MDT
Nautical Twilight 4:49 AM MDT 9:27 PM MDT
Astronomical Twilight 4:08 AM MDT 10:09 PM MDT
Moon 2:31 PM MDT (5/19) 2:17 AM MDT (5/19)
Length of Visible Light 15h 24m
Length of Day
14h 23m
Waxing Gibbous, 66% of the Moon is Illuminated
May 19
Waxing Gibbous
May 24
Full
May 31
Last Quarter
Jun 8
New
Jun 16
First Quarter

Hourly Weather History & Observations

Time (MDT) Temp. Windchill Dew Point Humidity Pressure Visibility Wind Dir Wind Speed Gust Speed Precip Events Conditions
12:53 AM 46.0 °F 42.5 °F 34.0 °F 63% 29.85 in 10.0 mi SSE 6.9 mph - N/A   Mostly Cloudy
1:53 AM 46.9 °F - 34.0 °F 61% 29.84 in 10.0 mi SE 8.1 mph - N/A   Overcast
2:53 AM 46.0 °F 42.5 °F 33.1 °F 61% 29.85 in 10.0 mi South 6.9 mph - N/A   Mostly Cloudy
4:53 AM 46.9 °F - 34.0 °F 61% 29.87 in 10.0 mi SE 5.8 mph - N/A   Overcast
6:53 AM 46.0 °F - 35.1 °F 66% 29.88 in 10.0 mi Calm Calm - N/A   Overcast
7:53 AM 48.9 °F - 37.0 °F 64% 29.88 in 10.0 mi Calm Calm - 0.00 in Rain Light Rain
8:53 AM 50.0 °F - 36.0 °F 59% 29.90 in 10.0 mi ENE 3.5 mph - 0.00 in   Mostly Cloudy
9:53 AM 55.0 °F - 32.0 °F 42% 29.88 in 10.0 mi South 3.5 mph - N/A   Clear
10:53 AM 57.9 °F - 30.9 °F 36% 29.85 in 10.0 mi Calm Calm - N/A   Clear
11:53 AM 54.0 °F - 37.0 °F 53% 29.88 in 10.0 mi Calm Calm - 0.01 in   Mostly Cloudy
2:53 PM 61.0 °F - 28.9 °F 30% 29.83 in 10.0 mi West 16.1 mph 31.1 mph N/A   Partly Cloudy
3:53 PM 60.1 °F - 30.9 °F 33% 29.83 in 10.0 mi South 15.0 mph 20.7 mph N/A   Scattered Clouds
4:53 PM 60.1 °F - 32.0 °F 35% 29.82 in 10.0 mi South 18.4 mph - N/A   Mostly Cloudy
5:53 PM 59.0 °F - 32.0 °F 36% 29.83 in 10.0 mi SSE 10.4 mph - 0.00 in   Mostly Cloudy
6:53 PM 55.9 °F - 34.0 °F 44% 29.87 in 10.0 mi ENE 13.8 mph 21.9 mph 0.01 in   Overcast
7:53 PM 54.0 °F - 36.0 °F 51% 29.87 in 10.0 mi SE 12.7 mph - N/A   Clear
8:53 PM 50.0 °F - 37.0 °F 61% 29.88 in 10.0 mi South 5.8 mph - N/A   Clear
10:53 PM 46.9 °F - 35.1 °F 63% 29.88 in 10.0 mi ESE 9.2 mph - N/A   Clear
11:53 PM 45.0 °F 41.8 °F 34.0 °F 65% 29.90 in 10.0 mi NE 5.8 mph - N/A   Clear